Back to catalog

STARLINK-4083

AliveCommunicationsVLEO
NORAD 52832·PAYLOAD·🇺🇸 United States

Launched Jun 17, 2022 from Cape Canaveral Space Force Station

Loading…

Next Passes (next 24 hours)

TLE

FreshSource: CelesTrak SupGP

Epoch: Sep 14, 2026, 21:52 UTC

1 52832C 22062C   26257.91159722  .00039551  00000+0  12719-2 0  2571
2 52832  53.1570 254.8229 0001224  97.3706  89.6290 15.31681611    14

Track STARLINK-4083 in real time with AllMySat

Download on the App Store